{"data":{"norad_id":45625,"epoch":"2026-05-25T04:02:07.773792Z","epoch_age_seconds":64458,"freshness":"FRESH","line1":"1 45625U 20034B   26145.16814553  .00003889  00000+0  15543-3 0  9990","line2":"2 45625  97.5732 302.2136 0013529 144.3488 215.8656 15.25661503332652","mean_motion":15.25661503,"eccentricity":0.0013529,"inclination_deg":97.5732,"raan_deg":302.2136,"arg_perigee_deg":144.3488,"mean_anomaly_deg":215.8656,"bstar":0.00015543,"rev_number":33265,"period_min":94.385287769826,"perigee_km":479.50950648135,"apogee_km":498.0900640349,"semimajor_km":6866.9367852581,"source":"CELESTRAK","updated_at":"2026-05-25T13:37:56.212416Z"}}